Location: Saratoga Springs
(43.0831°N, 73.7850°W)
Time: 23:07:29
(UTC-04:00)

Tiros 1 - Visible Passes

Search period start: 21 April 2024 00:00
Search period end: 01 May 2024 00:00
Orbit: 625 x 657 km, 48.4° (Epoch: 21 April)

Date Brightness Start Highest point End Pass type
(mag) Time Alt. Az. Time Alt. Az. Time Alt. Az.
21 Apr 9.9 01:31:39 12° ENE 01:31:39 12° ENE 01:32:00 10° ENE visible
21 Apr 8.0 03:09:10 40° NNW 03:09:49 43° N 03:14:13 10° ENE visible
21 Apr 7.7 04:47:52 10° WNW 04:52:25 57° NNE 04:56:56 10° E visible
22 Apr 9.3 01:54:26 22° NE 01:54:26 22° NE 01:56:08 10° ENE visible
22 Apr 8.1 03:31:57 25° NW 03:34:13 44° N 03:38:38 10° ENE visible
22 Apr 7.1 05:12:01 10° WNW 05:16:38 87° NNE 05:21:14 10° ESE visible
23 Apr 8.6 02:17:17 35° NE 02:17:17 35° NE 02:20:23 10° ENE visible
23 Apr 7.8 03:54:48 14° WNW 03:58:35 54° NNE 04:03:05 10° E visible
24 Apr 8.1 02:40:12 43° N 02:40:22 43° N 02:44:46 10° ENE visible
24 Apr 7.1 04:18:11 10° WNW 04:22:49 80° NNE 04:27:25 10° ESE visible
25 Apr 9.7 01:25:43 15° ENE 01:25:43 15° ENE 01:26:32 10° ENE visible
25 Apr 7.8 03:03:16 36° NW 03:04:43 51° NNE 03:09:12 10° E visible
25 Apr 7.1 04:42:20 10° WNW 04:46:53 60° SSW 04:51:24 10° SE visible
26 Apr 9.2 01:49:03 22° ENE 01:49:03 22° ENE 01:50:52 10° ENE visible
26 Apr 7.2 03:26:38 29° WNW 03:28:58 73° NNE 03:33:33 10° ESE visible
26 Apr 7.9 05:06:44 10° WNW 05:10:47 31° SW 05:14:48 10° SSE visible
26 Apr 8.4 21:01:01 10° S 21:04:19 19° SE 21:04:35 19° SE visible
26 Apr 9.2 22:41:10 10° WSW 22:42:20 17° WSW 22:42:20 17° WSW visible
27 Apr 8.8 02:12:53 28° ENE 02:12:53 28° ENE 02:15:18 10° E visible
27 Apr 6.9 03:50:29 25° WNW 03:53:04 67° SSW 03:57:36 10° SE visible
27 Apr 7.6 21:23:43 10° SSW 21:28:04 38° SE 21:30:32 22° E visible
27 Apr 8.3 23:05:20 10° WSW 23:08:15 36° W 23:08:15 36° W visible
28 Apr 8.7 02:37:30 27° E 02:37:30 27° E 02:39:41 10° ESE visible
28 Apr 7.6 04:15:11 25° W 04:16:58 35° SW 04:21:08 10° SSE visible
28 Apr 7.0 21:47:18 10° SW 21:52:00 71° SSE 21:55:39 16° ENE visible
28 Apr 8.2 23:29:43 10° W 23:33:18 41° NW 23:33:18 41° NW visible
29 Apr 9.3 03:03:05 14° SE 03:03:05 14° SE 03:03:47 10° SE visible
29 Apr 8.5 04:40:49 17° SW 04:40:49 17° SW 04:43:41 10° S visible
29 Apr 7.8 20:30:00 10° SSW 20:34:14 33° SE 20:38:26 10° ENE visible
29 Apr 7.3 22:11:24 10° WSW 22:16:06 71° NNW 22:19:50 16° ENE visible
29 Apr 8.5 23:54:09 10° WNW 23:57:25 35° NW 23:57:25 35° NW visible
30 Apr 7.1 20:53:26 10° SW 20:58:07 64° SSE 21:02:45 10° ENE visible
30 Apr 7.9 22:35:45 10° W 22:40:20 50° NNW 22:43:21 20° ENE visible
